SL-16 DEB, 23302

Orbit data source: Space-Track

SL-16 DEB, 23302 is space debris in LEO originally from a launch on Fri, 25 Dec 1992 UTC launched from the Tyuratam Missile And Space Complex (TTMTR). Debris objects in space refer to the collection of defunct objects orbiting the Earth. Examples of debris include non-operational satellites, rocket bodies, and fragments generated from explosions, collisions, or faulty payload assembly.

Loading next visibility...
Identifier
23302, 1992-093JH
Orbit
LEO
Country
Flag of CISCIS
Related business
Manufacturer
Unknown
Mission
Spacecraft
Bus & Motor
Unknown
Mass
Unknown
Launch date (UTC)
1992-12-25 (33 years ago)
Launch vehicle
Unknown
Launch site
Tyuratam Missile And Space Complex (TTMTR)
Object type
Payload
Rocket body
Debris
Shape & HBR
Unknown shape, 0.1 m
Radar Cross Section
Small (<0.1 m²)

Expand to show TLE details & history
Last TLE update: 12 hours ago

TLE from 12 hours ago
0 SL-16 DEB
1 23302U 92093JH  25297.93642506  .00002886  00000-0  14693-2 0  9992
2 23302  71.1287 277.2178 0118459 304.3525  84.5694 14.13035978620973
Epoch: 2025-10-24T22:28Z
TLE epoch observation values (Epoch: 2025-10-24T22:28:27.125Z)
Latitude
28.54755°
Longitude
-82.80963°
Altitude
844.92 km
Speed
7.437 km/s
True Right ascension
19h 11m 30s
True Declination
28° 24' 19"
Sunlit
Object was in daylight at epoch
Visualization orbit readout
Latitude
Unknown
Longitude
Unknown
Altitude
Unknown
Speed
Unknown
Apparent Right ascension
Unknown
Apparent Declination
Unknown
Sunlit
N/A
Visualization observer readout
Local Sidereal Time
05:57:29
Azimuth
Unknown
Elevation
Unknown
Doppler factor
Unknown
Orbital elements
Apogee altitude
932.502 km
Perigee altitude
761.328 km
Semi-major axis
7,225.052 km
Eccentricity
0.01185
Inclination
71.1287°
RAAN
277.2178°
Arg. of periapsis
304.3525°
True anomaly
85.92252°
Mean anomaly
84.5694°
Eccentric anomaly
85.24578°
Mean motion
3.53412 °/min
Orbital period
101.86 mins
BSTAR
0.0014693
Loading maneuver chart data...
Computing Atmospheric mass density...

Documentation

Showing up to 5 results
|